カタログに戻る

LEMUR 2 AFFIE-WAUWIE

運用中科学VLEO
NORAD 66295·PAYLOAD·🇺🇸 United States

打ち上げ Nov 2, 2025 から Cape Canaveral Space Force Station

Loading…

次のパス (今後24時間)

TLE

最新Source: Space-Track

元期: Sep 14, 2026, 07:40 UTC

1 66295U 25248C   26257.31964281  .00019561  00000-0  66448-3 0  9998
2 66295  45.3916 350.9276 0007955 251.2663 108.7364 15.30230178 48237

AllMySatでLEMUR 2 AFFIE-WAUWIEをリアルタイム追跡

Download on the App Store